TIME,DELAY(SENSOR),PRES,OXYGEN,RAWTEMP,T(OPTODE),TCPHASE,FLUOR,BETA(BETA700),BETA(BETA412),BETA(BETA440),CDOM,C(CSC),ED(ED412.20),ED(ED444.00),ED(ED489.60),ED(ED554.30),LU(LU412.10),LU(LU443.90),LU(LU489.70),LU(LU554.70),COMP,TILTX,TILTY,CHECK
1370492710,5809,872.8099975585938000,33.3899192810058600,563.6892700195312000,4.3715000152587890,56.5778617858886700,56,97,99,77,81,15627,0,0,0,0,2147122669,2147772662,2147573101,2147570130,595,2,13,18657
1370496306,5811,951.5700073242188000,36.9830093383789060,569.6459960937500000,4.1865620613098145,56.0665397644043000,54,97,101,79,81,15626,0,0,0,0,2147120265,2147774555,2147571291,2147566098,3338,2,13,6664
1370499906,5808,959.4400024414062000,35.7547683715820300,570.5413208007812000,4.1587409973144530,56.2674903869628900,54,98,99,77,80,15627,0,0,0,0,2147121426,2147771840,2147568228,2147567140,299,2,13,48368
1370503506,5808,980.6400146484375000,40.5115509033203100,573.5266113281250000,4.0659179687500000,55.5753517150878900,55,98,99,76,80,15624,0,0,0,0,2147124690,2147768128,2147574976,2147566107,778,2,13,9139
1370507106,5809,991.8900146484375000,41.3416404724121100,573.2761230468750000,4.0737090110778810,55.4543495178222660,56,100,100,78,81,15623,0,0,0,0,2147121554,2147774144,2147571172,2147570057,192,2,13,62291
1370510706,5808,989.5999755859375000,38.4283103942871100,572.9614868164062000,4.0834941864013670,55.8855781555175800,53,98,99,78,81,15624,0,0,0,0,2147122706,2147770020,2147572032,2147566601,375,3,13,18645
1370514306,5809,993.2199707031250000,37.0051002502441400,573.7783813476562000,4.0580830574035645,56.1100692749023440,54,98,99,77,81,15625,0,0,0,0,2147122038,2147772681,2147569152,2147568621,473,2,13,55413
1370517906,5810,991.6900024414062000,38.6861686706543000,573.6898193359375000,4.0608429908752440,55.8543395996093750,56,98,99,78,80,15620,0,0,0,0,2147122029,2147765586,2147573449,2147569837,16,2,13,60848
1370521506,5810,999.3900146484375000,40.3404998779296900,574.0484008789062000,4.0496850013732910,55.6069488525390600,55,100,99,78,81,15622,0,0,0,0,2147120859,2147771446,2147574765,2147564891,21,2,13,65164
1370525106,5813,986.4400024414062000,40.2745399475097660,573.9639282226562000,4.0523128509521480,55.6179008483886700,54,98,100,77,81,15622,0,0,0,0,2147122742,2147771346,2147572736,2147566427,34,3,13,366
1370528706,5809,987.5000000000000000,40.6796302795410160,575.8887939453125000,3.9924159049987793,55.5768508911132800,55,100,100,78,81,15619,0,0,0,0,2147123227,2147770048,2147571602,2147566994,516,2,13,57093
1370532306,5809,993.7600097656250000,40.4468383789062500,574.8795776367188000,4.0238227844238280,55.6010398864746100,55,98,99,76,80,15619,0,0,0,0,2147122514,2147774509,2147570742,2147565732,3504,2,13,17048
1370535906,5809,994.8400268554688000,39.4574813842773440,574.3162231445312000,4.0413532257080080,55.7458000183105500,54,99,99,79,81,15619,0,0,0,0,2147121618,2147773522,2147569874,2147567570,242,2,13,56702
1370539506,5808,993.2600097656250000,39.4450607299804700,574.6060180664062000,4.0323390960693360,55.7462806701660160,54,97,100,78,81,15617,0,0,0,0,2147118674,2147778688,2147573869,2147567030,351,3,13,2351
1370543106,5810,997.2500000000000000,39.7647094726562500,574.0048217773438000,4.0510411262512210,55.6935806274414060,55,101,99,77,80,15608,0,0,0,0,2147122258,2147773330,2147566683,2147568018,3570,3,13,36866
1370546706,5811,1003.8699951171875000,40.9806098937988300,574.0903930664062000,4.0483779907226560,55.5149192810058600,55,125,99,79,80,15618,0,0,0,0,2147120740,2147773988,2147570212,2147566646,79,3,13,57217
1370550306,5810,1007.2999877929688000,38.1458511352539060,573.2592773437500000,4.0742321014404300,55.9268913269043000,55,98,101,77,80,15617,0,0,0,0,2147120155,2147772443,2147573769,2147565924,401,2,13,7138
1370553906,5811,1009.4299926757812000,37.2261505126953100,572.8306884765625000,4.0875611305236820,56.0607604980468750,55,97,99,78,81,15616,0,0,0,0,2147121408,2147776996,2147570166,2147563629,125,3,13,39091
1370557506,5812,1010.5499877929688000,39.3350791931152340,572.5068969726562000,4.0976309776306150,55.7391891479492200,55,101,99,77,81,15618,0,0,0,0,2147125101,2147768201,2147571309,2147565056,37,2,13,16376
1370561106,5809,1005.1199951171875000,39.1714401245117200,572.7009887695312000,4.0915927886962890,55.7662696838378900,54,99,99,78,81,15615,0,0,0,0,2147123218,2147774061,2147570898,2147567972,769,2,13,44753
1370564706,5811,1000.0999755859375000,39.3782196044921900,573.8778076171875000,4.0549931526184080,55.7473106384277340,55,99,99,79,80,15602,0,0,0,0,2147120786,2147770176,2147570422,2147566902,528,2,13,42294
1370568306,5811,1004.7899780273438000,40.4748687744140600,574.8068847656250000,4.0260829925537110,55.5945091247558600,55,98,100,78,80,15614,0,0,0,0,2147121718,2147768557,2147571035,2147566509,493,3,13,4322
1370571906,5811,1003.0900268554688000,39.7974891662597660,575.2985229492188000,4.0107860565185550,55.7043190002441400,55,97,99,78,80,15616,0,0,0,0,2147119003,2147771154,2147573604,2147567670,303,3,13,57742
1370575506,5810,999.4299926757812000,40.1223602294921900,576.0928955078125000,3.9860630035400390,55.6627502441406250,55,98,98,78,81,15612,0,0,0,0,2147120996,2147772169,2147569828,2147567524,63,3,13,12006
1370579106,5812,998.7899780273438000,39.7341308593750000,575.7116699218750000,3.9979290962219240,55.7148513793945300,54,98,99,78,81,15614,0,0,0,0,2147122587,2147770358,2147569792,2147565979,3292,2,13,21178
1370582706,5808,993.7199707031250000,37.2252082824707000,576.2988281250000000,3.9796519279479980,56.0975418090820300,55,99,100,77,80,15615,0,0,0,0,2147124461,2147768969,2147572178,2147565979,3419,3,13,50616
1370586306,5808,996.6099853515625000,33.7049217224121100,576.3787231445312000,3.9771668910980225,56.6504096984863300,55,98,100,77,81,15611,0,0,0,0,2147121664,2147771840,2147573339,2147564918,60,2,13,54539
1370589906,5810,1004.0399780273438000,39.7382202148437500,575.6002807617188000,4.0013937950134280,55.7136611938476560,54,98,99,77,80,15614,0,0,0,0,2147121837,2147774052,2147572251,2147564864,48,3,13,57738
1370593506,5809,1010.4699707031250000,39.4599990844726560,575.0756225585938000,4.0177249908447270,55.7472114562988300,55,98,100,77,81,15610,0,0,0,0,2147119661,2147766290,2147569764,2147568658,315,2,13,3963
1370597106,5809,1017.3599853515625000,38.2099800109863300,574.2078247070312000,4.0447268486022950,55.9315605163574200,54,98,99,77,82,15609,0,0,0,0,2147120475,2147768731,2147571940,2147565814,563,3,13,1326
1370600706,5807,1005.6699829101562000,37.9315681457519500,573.8167724609375000,4.0568890571594240,55.9722404479980500,55,98,99,78,81,15609,0,0,0,0,2147123858,2147769042,2147574180,2147567698,3280,3,13,19402
1370604306,5810,1011.6900024414062000,39.2877502441406250,574.0911254882812000,4.0483551025390625,55.7689895629882800,55,98,100,78,81,15604,0,0,0,0,2147120146,2147767232,2147574171,2147571245,2697,3,13,17268
1370607906,5807,1008.1400146484375000,37.6001815795898440,574.1151733398438000,4.0476069450378420,56.0230293273925800,55,102,100,78,81,15609,0,0,0,0,2147121572,2147771712,2147568960,2147567625,296,2,13,10002
1370611506,5811,1003.5100097656250000,36.6408309936523440,574.5499267578125000,4.0340838432312010,56.1713790893554700,55,99,99,77,81,15609,0,0,0,0,2147122788,2147771227,2147571958,2147565833,77,3,13,29905
1370615106,5811,1002.9799804687500000,37.3570899963378900,574.5103759765625000,4.0353112220764160,56.0631294250488300,54,112,101,77,80,15608,0,0,0,0,2147121261,2147767168,2147570121,2147567680,3534,2,13,63177
1370618706,5809,1002.3699951171875000,36.2430191040039060,575.5651855468750000,4.0024847984313965,56.2434501647949200,54,98,99,79,81,15608,0,0,0,0,2147125092,2147773220,2147567862,2147566354,3478,2,13,5124
1370622306,5811,999.4299926757812000,35.8446998596191400,576.3068847656250000,3.9794030189514160,56.3142890930175800,55,97,99,78,81,15600,0,0,0,0,2147120923,2147767323,2147570624,2147568786,3576,2,13,51230
1370625906,5813,1003.0700073242188000,39.2595214843750000,575.7203979492188000,3.9976580142974854,55.7881202697753900,55,98,98,78,80,15610,0,0,0,0,2147119890,2147769435,2147572086,2147567936,3506,2,13,56532
1370629506,5811,997.4299926757812000,39.7425918579101560,576.7930908203125000,3.9642660617828370,55.7255706787109400,54,98,99,77,81,15609,0,0,0,0,2147122834,2147773814,2147571428,2147565248,107,3,13,11846
1370633106,5811,1011.3400268554688000,41.7492408752441400,575.4680786132812000,4.0055098533630370,55.4113502502441400,55,97,98,77,81,15605,0,0,0,0,2147119570,2147771163,2147569938,2147566829,82,3,13,31753
1370636156,5807,1008.6199951171875000,37.1306800842285160,575.4105224609375000,4.0073008537292480,56.1023902893066400,54,97,100,78,80,15608,0,0,0,0,2147122240,2147772635,2147568649,2147567917,829,3,13,35181
